Weather in Sogra

Russia / Arkhangel'skaya Oblast'     62°40′31″N   46°11′38″E
temp.,
°C
wind,
m/s
gust,
m/s
humid.,
%
clouds,
%
prec.,
mm/h
press.,
hPa
HPBL,
m
14 april, wed
wed1400:00+7ssw2699100 0.0 1021143
03:00+8s3999100 0.1 1019273
06:00+8ssw41198100 0.1 1018510
09:00+10ssw41192100 0.1 1017556
12:00+15ssw5147069 0.0 1015935
15:00+16ssw6166133 0.1 10122053
18:00+14wsw7146896 1.0 10121227
21:00+6nnw5890100 1.6 1015704
15 april, thu
thu1500:00+3nw3896100 3.1 1018492
03:00+3nw3789100 3.3 1019800
06:00+2nw3873100 0.1 1021769
09:00+3nw4756100 0.1 1023922
12:00+6nw58455 0.0 10241787
15:00+6nw684152 0.0 10261960
18:00+4nw47485 0.0 10271183
21:000nw24725 0.0 102982
16 april, fri
fri1600:00−1nw27784 0.0 1031197
03:00−2wnw127920 0.0 103144
06:000wsw267093 0.0 1031243
09:00+4wsw484355 0.0 1030877
12:00+7w694113 0.0 10281565
15:00+8wnw5105198 0.0 10281990
18:00+6nw5106197 0.2 10281365
21:00+3nw310795 0.3 1029358
17 april, sat
sat1700:000nw299410 0.0 1030240
03:00−1nw269620 0.0 1031150
06:00+1nw377896 0.0 1032760
09:00+3nw5860100 0.1 10311316
12:00+7nw61047100 0.0 10311584
15:00+7nw5115698 0.0 10311621
18:00+5nw41168100 0.0 10311394
21:00+4nw2683100 0.0 1031246
18 april, sun
sun1800:00+4nw398476 0.1 1031845
03:00+3nw3980100 0.1 1031753
06:00+3nw4979100 0.0 1032960
09:00+4nw388172 0.0 1032923
12:00+6nnw3667100 0.1 10321067
15:00+6nne3574100 0.2 1033823
18:00+4ene228799 0.1 1034408
21:00+2ne119320 0.1 103514